Regional Weather Roundup
Issued by NWS

Home | Current Version | Previous Version | Graphics & Text | Print | Product List | Glossary On
Versions: 1 2 3 4 5 6 7 8 9 10 11 12 13 14 15 16 17 18 19 20 21 22 23 24 25 26 27 28 29 30 31 32 33 34 35 36 37 38 39 40 41 42 43 44 45 46 47 48 49 50
000
ASUS43 KIND 170309
RWRIN

WEATHER ROUNDUP FOR INDIANA
NATIONAL WEATHER SERVICE INDIANAPOLIS IN
1000 PM EST TUE JAN 16 2018

NOTE: "FAIR" INDICATES FEW OR NO CLOUDS BELOW 12,000 FEET WITH NO
SIGNIFICANT WEATHER AND/OR OBSTRUCTIONS TO VISIBILITY.

* - STATION DOES NOT REPORT WEATHER SUCH AS PRECIPITATION OR FOG.

+ - STATION NOT QUALITY CONTROLLED BY THE NATIONAL WEATHER SERVICE.
    USE DATA WITH CAUTION...ESPECIALLY DEWPOINT AND RELATIVE
    HUMIDITY OBSERVATIONS.

INZ001>003-010>013-019-020-170400-
NORTHWEST INDIANA

CITY           SKY/WX    TMP DP  RH WIND       PRES   REMARKS
GARY /AIRPORT/ PTCLDY    18  10  73 W12       30.53R WCI   5
KNOX *+        CLOUDY    16  14  93 SW10      30.50R WCI   3
LA PORTE +     LGT SNOW  13  11  90 CALM      30.48S
MICHIGAN CITY+ LGT SNOW  19  18  93 N6        30.49R WCI  11
MONTICELLO +   LGT SNOW   8   4  84 SW8       30.53F WCI  -5
RENSSELAER +   FAIR       9   3  78 SW8       30.53S WCI  -4
VALPARAISO     CLOUDY    19  12  74 W10       30.49R WCI   7

$$

LMZ046-743>745-170400-
SOUTHERN LAKE MICHIGAN

STATION/POSITION TIME  TEMP    WIND        PRES    WAVE
                       AIR SEA DIR/SP/G            HT
                 (UTC) (F)     (DEG/KT/KT) (MB)    (FT)
BURNS HARBOR     0240   23     300/ 19/ 24 1032.5R
MICHIGAN CITY    0240          330/ 23/ 25   N/A

$$

INZ004-005-014>016-021>024-170400-
NORTH CENTRAL INDIANA

CITY           SKY/WX    TMP DP  RH WIND       PRES   REMARKS
GOSHEN         MOCLDY     4   1  88 S7        30.49R WCI  -8
LOGANSPORT +   LGT SNOW   9   5  85 W9        30.54R WCI  -5
PERU/GRISSOM   FLURRIES   9   5  85 W10       30.51S WCI  -6
ROCHESTER +    FLURRIES  14  10  85 SW8       30.51S WCI   3
SOUTH BEND     CLOUDY     9   6  88 S3        30.49R
WARSAW +       LGT SNOW   5   3  92 CALM      30.50R

$$

INZ006>009-017-018-025>027-170400-
NORTHEAST INDIANA

CITY           SKY/WX    TMP DP  RH WIND       PRES   REMARKS
AUBURN +       FLURRIES   9   3  78 SW5       30.50S WCI   0
FORT WAYNE     MOCLDY     8   4  83 W8        30.51S WCI  -4
HUNTINGTON +   FLURRIES   9   4  82 SW9       30.51S WCI  -5
KENDALLVILLE + FLURRIES   3   0  88 SW5       30.48S WCI  -6

$$

INZ028-029-035-036-043>045-051>053-170400-
WEST CENTRAL INDIANA

CITY           SKY/WX    TMP DP  RH WIND       PRES   REMARKS
CRAWFORDSVL +  LGT SNOW   6   3  88 MISG        N/A
GREENCASTLE +  FLURRIES   7   1  78 CALM      30.58S
LAFAYETTE      CLOUDY     7   4  87 W7        30.56F WCI  -5
TERRE HAUTE    CLOUDY     7   1  76 W6        30.63R WCI  -3

$$

INZ030>032-037>040-046>048-054>057-064-065-170400-
CENTRAL INDIANA

CITY           SKY/WX    TMP DP  RH WIND       PRES   REMARKS
COLUMBUS       FLURRIES   7   0  72 W6        30.61S WCI  -3
FISHERS *+     CLOUDY     5   5 100 W6        30.56S WCI  -6
FRANKFORT +    LGT SNOW  10   6  83 W14       30.55F WCI  -6
INDIANAPOLIS   FLURRIES   6   1  80 W13       30.57S WCI -10
-EAGLE CREEK   CLOUDY     7   1  76 VRB3      30.56R
MARION +       LGT SNOW   7   3  85 W10       30.53S WCI  -8
MT COMFORT *+  CLOUDY     7   3  85 W10       30.56R WCI  -8
SHELBYVILLE    CLOUDY     7  -1  70 SW8       30.57S WCI  -6
ZIONSVILLE +   FLURRIES   6   2  84 SW8       30.55S WCI  -7

$$

INZ033-034-041-042-049-050-058-059-170400-
EAST CENTRAL INDIANA

CITY           SKY/WX    TMP DP  RH WIND       PRES   REMARKS
MUNCIE         CLOUDY     8   1  73 SW9       30.52S WCI  -5
RICHMOND +     CLOUDY     5   1  85 W14       30.51S WCI -12

$$

INZ060-061-067>069-081>083-085>088-170400-
SOUTHWEST INDIANA

CITY           SKY/WX    TMP DP  RH WIND       PRES   REMARKS
EVANSVILLE     CLOUDY     6   2  83 NW3       30.67S
HUNTINGBURG +  FLURRIES   5   1  83 NW5       30.65S WCI  -4
WASHINGTON +   LGT SNOW   6  -1  73 W3        30.65S

$$

INZ062-063-066-070>080-084-089>092-170400-
SOUTH CENTRAL AND SOUTHEAST INDIANA

CITY           SKY/WX    TMP DP  RH WIND       PRES   REMARKS
BATESVILLE *+    N/A    N/A N/A N/A MISG        N/A
BEDFORD +      LGT SNOW   5   1  85 W3        30.61R
BLOOMINGTON    CLOUDY     5  -1  76 W6        30.59S WCI  -6
FRENCH LICK *+ CLOUDY     5   0  78 W3        30.61S
MADISON *+     CLOUDY     7   0  72 W6        30.61S WCI  -3
NORTH VERNON + LGT SNOW   5   0  78 W5        30.60R WCI  -4
SEYMOUR +      FLURRIES   9   0  66 W8        30.62S WCI  -4

$$




USA.gov is the U.S. government's official web portal to all federal, state and local government web resources and services.